This is the latest recevied weather packets stored in our database for station/object JF2ZGN-13. If no packets are shown the sender has not sent any weather packets the latest 10 day(s).
| Time | Temp. | Humidity | Pressure | Rain* | Wind** | Luminosity | Snow |
|---|---|---|---|---|---|---|---|
| 1787811519 | 22.78° C | 59% | 908.2 hPa | 0 mm | - | - | - |
| 1787810918 | 22.78° C | 60% | 908.2 hPa | 0 mm | - | - | - |
| 1787810319 | 22.78° C | 60% | 908.1 hPa | 0 mm | - | - | - |
| 1787809718 | 22.78° C | 57% | 908 hPa | 0 mm | - | - | - |
| 1787809117 | 22.78° C | 59% | 908.2 hPa | 0 mm | - | - | - |
| 1787808518 | 23.33° C | 62% | 908.4 hPa | 0 mm | - | - | - |
| 1787807916 | 23.33° C | 60% | 908.3 hPa | 0 mm | - | - | - |
| 1787807316 | 23.33° C | 64% | 908 hPa | 0 mm | - | - | - |
| 1787806716 | 22.78° C | 64% | 908.2 hPa | 0 mm | - | - | - |
| 1787806115 | 22.78° C | 66% | 908.5 hPa | 0 mm | - | - | - |
| 1787805514 | 22.22° C | 71% | 908.2 hPa | 0 mm | - | - | - |
| 1787804914 | 22.22° C | 70% | 908.6 hPa | 0 mm | - | - | - |
| 1787804313 | 22.78° C | 72% | 908.7 hPa | 0 mm | - | - | - |
| 1787803713 | 22.78° C | 71% | 908.6 hPa | 0 mm | - | - | - |
| 1787803112 | 22.78° C | 70% | 908.6 hPa | 0 mm | - | - | - |
| 1787802512 | 22.78° C | 71% | 908.6 hPa | 0 mm | - | - | - |
| 1787801911 | 23.33° C | 68% | 908.6 hPa | 0 mm | - | - | - |
| 1787801311 | 23.33° C | 66% | 908.8 hPa | 0 mm | - | - | - |
| 1787800712 | 23.89° C | 65% | 908.8 hPa | 0 mm | - | - | - |
| 1787800110 | 24.44° C | 67% | 908.7 hPa | 0 mm | - | - | - |
| 1787799510 | 24.44° C | 65% | 908.9 hPa | 0 mm | - | - | - |
| 1787798910 | 24.44° C | 64% | 908.9 hPa | 0 mm | - | - | - |
| 1787798308 | 24.44° C | 60% | 908.9 hPa | 0 mm | - | - | - |
| 1787797708 | 25° C | 63% | 909 hPa | 0 mm | - | - | - |
| 1787797108 | 24.44° C | 63% | 909.1 hPa | 0 mm | - | - | - |
* Rain since midnight (hover to see other rain measurements)
** Current wind speed in m/s (hover to see current wind gust speed)